Location: Unspecified
(40.9833°N, 0.0000°E)
Time: 16:30:26
(UTC+00:00)

Envisat - Pass Details

Date: 21 May 2019
Orbit: 764 x 766 km, 98.1° (Epoch: 16 June)

Event Time Altitude Azimuth Distance (km) Brightness Sun altitude
Rises 19:50:30 0° 213° (SSW) 3,220 6.2 -6.3°
Reaches altitude 10° 19:53:56 10° 238° (WSW) 2,300 5.8 -6.9°
Maximum altitude 19:56:35 14° 270° (W) 2,023 6.1 -7.3°
Drops below altitude 10° 19:59:15 10° 302° (WNW) 2,308 7.3 -7.7°
Sets 20:02:43 0° 327° (NNW) 3,240 7.8 -8.2°
